OBJECT B, 62264

Orbit data source: Space-Track

You're viewing an Uncataloged Satellite

Recently launched and/or uncataloged satellites may have evolving metadata. Metadata may include but not limited to: Owner, Maufacturer, Bus, Motor, and Mission.

OBJECT B, 62264 is a satellite owned by IRSA (IR) in LEO that was launched on Fri, 06 Dec 2024 UTC via an SIMORGH launch vehicle from the Semnan, Iran (SEM). Unknown objects in Earth's orbit typically refer to objects detected orbiting the Earth but have not yet been identified or cataloged. These objects could be anything from previously untracked satellites, spent rocket stages, debris from satellite collisions, or even natural meteoroids temporarily captured by Earth's gravity.

Not visible in the next 10 days
OBJECT B details
Identifier
62264, 2024-236B
Orbit
LEO
Last TLE update7 hours ago
Origin
Flag of IRIRSA (IR / IRAN)
ManufacturerISRC
MissionOperational spacecraft
Bus & MotorSAMAN, Unknown motor
Mass300 kg wet, 300 kg dry
Launch date (UTC)
2024-12-06 (2 months ago)
Launch vehicle
SIMORGH
Launch site
Semnan, Iran (SEM)
Object typeUnknown
Shape & HBRUnknown
Radar Cross SectionMedium (>0.1 m² and <1 m²)

Expand to show TLE details & history

TLE from 7 hours ago
0 OBJECT B
1 62264U 24236B   25025.54873012  .00071190  11248-4  36572-3 0  9995
2 62264  58.5524 165.7315 0052976 237.8429 121.7516 15.79419212  7947
Epoch: 2025-01-25T13:10Z
Definitive object data (Epoch: 2025-01-25T13:10:10.282Z)
Latitude0.00001°
Longitude-156.90729°
Altitude352.42 km
Speed7.688 km/s
True Right ascension11h 02m 55s
True Declination0° 00' 00"
Sunlit
Object was in full shadow at TLE epoch
Visualization TLE readout
Latitude23.6787°
Longitude6.408°
Altitude330.887 km
Speed7.714 km/s
Apparent Right ascension00h 10m 53s
Apparent Declination-41° 04' 17"
Sunlit
Object is in daylight
Visualization observer readout
Local Sidereal Time21:14:30
Azimuth148.358° SSE
Elevation-0.361°
Doppler factor1
Orbital elements
Apogee altitude367.032 km
Perigee altitude295.942 km
Semi-major axis6,709.624 km
Eccentricity0.0052976
Inclination58.5524°
RAAN165.7315°
Arg. of periapsis237.8429°
True anomaly122.26601°
Mean anomaly121.7516°
Eccentric anomaly122.00898°
Mean motion3.94908 °/min
BSTAR0.00036572
Orbital period91.16 mins
Loading maneuver chart data...
Loading historical data...
Loading historical data...
Loading historical data...
Loading historical data...
Loading historical data...
Loading historical data...
Loading historical data...
Other satellites on launch #236 in the year 2024 (2024-12-06 UTC)

OBJECT B Visibility forecast

Observer location: undefined°, undefined

OBJECT B is not visible in the next 10 days
Span
Click to sort rows by Start time (UTC) header in descending order
Start Az.
Max El. time (UTC)
Max El. Az.
Max El.
End time (UTC)
End Az.
|